DateTimeUTC,F1_A11,F1_S11,BsB_S11,BsG_S11,BsR_S11,BbsB_S11,BbsG_S11,BbsR_S11,BaB_A11,BaG_A11,BaR_A11,Tu_S11,T_S11,Uu_S11,U_S11,P_S11,T1_A11
2021-07-11T23:00:00Z,00000200,20000000,,,,,,,0000.18,0000.05,-000.16,18.9,25.4,11.7,07.9,0674.3,31.0
2021-07-11T23:01:00Z,00000200,20000000,,,,,,,-000.37,0000.00,0000.12,18.9,25.4,11.7,07.9,0674.3,31.0
2021-07-11T23:02:00Z,00000200,20000000,,,,,,,0000.14,0000.05,-000.01,18.9,25.4,11.7,07.9,0674.2,31.0
2021-07-11T23:03:00Z,00000200,60000000,,,,,,,-000.03,-000.17,0000.02,18.9,25.4,11.7,07.9,0674.2,31.0
2021-07-11T23:04:00Z,00000200,40000000,0001.65,0000.57,0000.24,-000.09,0000.56,0000.11,0000.21,0000.02,0000.19,19.0,25.3,12.0,08.2,0675.1,31.0
2021-07-11T23:05:00Z,00000200,00000000,0001.02,0000.39,0000.36,0000.26,0000.05,-000.08,0000.00,0000.02,-000.17,19.1,25.2,12.0,08.3,0675.2,31.0
2021-07-11T23:06:00Z,00000200,00000000,0000.84,0000.34,0000.29,0000.56,0000.21,-000.13,0000.21,0000.14,0000.36,19.1,25.2,12.0,08.3,0675.2,31.0
2021-07-11T23:07:00Z,00000200,00000000,0001.03,0000.60,0000.38,0000.50,0000.21,-000.23,-000.13,0000.36,0000.07,19.1,25.2,12.0,08.3,0675.2,31.0
2021-07-11T23:08:00Z,00000200,00000000,0001.10,0000.57,0000.40,-000.25,0000.30,-000.02,0000.13,-000.14,-000.14,19.1,25.2,12.1,08.3,0675.2,31.0
2021-07-11T23:09:00Z,00000200,00000000,0001.81,0000.85,0000.38,0000.07,0000.14,0000.25,0000.03,0000.17,-000.10,19.1,25.2,12.1,08.4,0675.2,31.0
2021-07-11T23:10:00Z,00000200,00000000,0001.18,0000.78,0000.42,0000.41,0000.32,-000.21,0000.24,0000.01,0000.25,19.1,25.2,12.2,08.4,0675.2,31.0
2021-07-11T23:11:00Z,00000200,00000000,0000.42,0000.27,0000.50,-000.18,-000.13,-000.08,-000.25,0000.07,0000.10,19.1,25.2,12.2,08.4,0675.2,31.0
2021-07-11T23:12:00Z,00000200,00000000,0000.96,0000.39,0000.66,0000.18,0000.25,-000.04,0000.03,-000.21,-000.14,19.1,25.2,12.2,08.4,0675.2,31.0
2021-07-11T23:13:00Z,00000200,00000000,0000.69,0000.47,0000.50,-000.23,0000.29,-000.14,0000.30,0000.20,-000.03,19.1,25.2,12.2,08.4,0675.2,31.0
2021-07-11T23:14:00Z,00000200,00000000,0000.72,0000.23,0000.47,0000.21,0000.16,-000.12,-000.21,-000.02,0000.16,19.1,25.2,12.2,08.4,0675.2,31.0
2021-07-11T23:15:00Z,00000200,00000000,0001.05,0000.48,0000.20,0000.07,0000.30,0000.17,0000.13,0000.06,0000.15,19.1,25.1,12.2,08.4,0675.2,31.0
2021-07-11T23:16:00Z,00000200,00000000,0000.43,0000.37,0000.13,0000.26,-000.24,-000.15,0000.42,-000.06,-000.06,19.1,25.1,12.2,08.4,0675.2,31.0
2021-07-11T23:17:00Z,00000200,00000000,0000.85,0000.15,0000.09,-000.36,0000.31,-000.14,-000.20,0000.10,0000.10,19.1,25.1,12.2,08.4,0675.2,31.0
2021-07-11T23:18:00Z,00000200,00000000,0001.44,0000.36,0000.38,0000.00,0000.17,0000.16,0000.07,0000.15,0000.10,19.1,25.1,12.2,08.4,0675.2,31.0
2021-07-11T23:19:00Z,00000200,00000000,0001.22,0000.33,0000.34,0000.22,0000.33,0000.21,0000.07,0000.08,0000.00,19.1,25.1,12.2,08.4,0675.2,31.1
2021-07-11T23:20:00Z,00000200,00000000,0000.76,0000.26,0000.27,0000.01,-000.13,-000.17,0000.10,-000.14,-000.01,19.1,25.1,12.2,08.4,0675.2,31.0
2021-07-11T23:21:00Z,00000200,00000000,0001.22,0000.41,0000.50,-000.43,0000.15,-000.16,0000.15,0000.09,-000.26,19.1,25.1,12.2,08.4,0675.2,31.0
2021-07-11T23:22:00Z,00000200,00000000,0000.30,0000.18,0000.42,-000.08,0000.55,0000.33,-000.27,0000.40,0000.53,19.1,25.1,12.2,08.5,0675.2,31.0
2021-07-11T23:23:00Z,00000200,00000000,0000.76,0000.45,0000.34,0000.26,0000.07,-000.22,0000.18,-000.21,-000.00,19.1,25.1,12.2,08.4,0675.2,31.0
2021-07-11T23:24:00Z,00000200,00000000,0000.80,0000.52,0000.39,-000.03,0000.48,0000.05,0000.05,-000.11,-000.11,19.1,25.1,12.3,08.5,0675.1,31.0
2021-07-11T23:25:00Z,00000200,00000000,0000.56,0000.56,0000.55,-000.04,0000.06,-000.14,0000.07,0000.32,0000.18,19.1,25.1,12.4,08.6,0675.2,31.0
2021-07-11T23:26:00Z,00000200,00000000,0001.57,0000.47,0000.34,0000.34,0000.23,-000.23,0000.30,-000.29,-000.16,19.1,25.1,12.4,08.6,0675.2,31.0
2021-07-11T23:27:00Z,00000200,00000000,0000.76,0000.45,0000.80,-000.04,0000.17,0000.10,-000.21,0000.12,0000.03,19.0,25.1,12.3,08.5,0675.2,31.0
2021-07-11T23:28:00Z,00000200,00000000,0000.91,0000.12,0000.56,0000.40,0000.15,0000.20,0000.17,0000.51,0000.17,19.0,25.1,12.3,08.5,0675.2,31.0
2021-07-11T23:29:00Z,00000200,00000000,0001.03,0000.41,0000.38,0000.21,-000.09,-000.49,-000.09,-000.17,-000.13,19.0,25.1,12.4,08.6,0675.2,31.0
2021-07-11T23:30:00Z,00000200,00000000,0001.40,0000.58,0000.35,0000.53,0000.50,0000.11,0000.07,0000.23,0000.10,19.1,25.1,12.4,08.6,0675.2,31.0
2021-07-11T23:31:00Z,00000200,00000000,0001.18,0000.71,0000.37,0000.90,0000.28,-000.06,0000.42,-000.12,0000.16,19.0,25.1,12.5,08.7,0675.2,31.0
2021-07-11T23:32:00Z,00000200,00000000,0000.82,0000.55,0000.45,0000.33,0000.38,0000.04,-000.17,-000.23,0000.07,19.0,25.1,12.5,08.6,0675.2,31.0
2021-07-11T23:33:00Z,00000200,00000000,0000.91,0000.42,0000.37,0000.17,0000.09,0000.12,-000.37,0000.47,-000.21,19.0,25.1,12.6,08.7,0675.2,31.0
2021-07-11T23:34:00Z,00000200,00000000,0001.12,0000.37,0000.73,-000.03,0000.16,0000.02,0000.46,-000.07,0000.16,19.0,25.1,12.6,08.7,0675.3,31.0
2021-07-11T23:35:00Z,00000200,00000000,0000.90,0000.45,0000.21,0001.20,0000.12,-000.04,-000.13,0000.14,0000.29,19.0,25.1,12.6,08.7,0675.3,31.0
2021-07-11T23:36:00Z,00000200,00000000,0001.23,0000.53,0000.51,-000.02,0000.67,0000.03,0000.24,-000.02,-000.19,19.0,25.1,12.5,08.7,0675.3,31.0
2021-07-11T23:37:00Z,00000200,00000000,0000.61,0000.40,0000.25,-000.38,0000.23,0000.08,-000.26,-000.25,-000.11,19.0,25.1,12.6,08.7,0675.3,31.0
2021-07-11T23:38:00Z,00000200,00000000,0000.95,0000.92,0000.47,-000.23,0000.12,0000.14,0000.24,0000.14,0000.01,19.0,25.1,12.6,08.7,0675.3,31.0
2021-07-11T23:39:00Z,00000200,00000000,0001.87,0000.48,0000.43,-000.00,0000.26,0000.12,-000.08,-000.19,0000.30,19.0,25.1,12.6,08.7,0675.3,31.0
2021-07-11T23:40:00Z,00000200,00000000,0000.81,0000.50,0000.16,0000.21,0000.19,-000.06,0000.50,0000.39,0000.18,19.0,25.1,12.6,08.7,0675.3,31.0
2021-07-11T23:41:00Z,00000200,00000000,0001.18,0000.13,0000.43,0000.52,0000.35,0000.08,-000.47,0000.13,0000.11,19.0,25.0,12.6,08.7,0675.3,31.0
2021-07-11T23:42:00Z,00000200,00000000,0000.77,0000.26,0000.52,-000.30,0000.04,-000.01,0000.29,0000.02,-000.41,19.0,25.0,12.7,08.7,0675.2,31.0
2021-07-11T23:43:00Z,00000200,00000000,0001.20,0000.47,0000.48,0000.36,0000.20,0000.05,-000.06,-000.12,0000.41,19.0,25.0,12.7,08.8,0675.2,31.0
2021-07-11T23:44:00Z,00000200,00000000,0000.82,0000.45,0000.43,-000.22,0000.18,0000.09,0000.09,-000.01,-000.25,19.0,25.0,12.7,08.8,0675.2,31.0
2021-07-11T23:45:00Z,00000200,00000000,0000.91,0000.58,0000.03,0000.53,-000.15,-000.28,-000.32,0000.27,0000.28,19.0,25.0,12.7,08.7,0675.2,31.0
2021-07-11T23:46:00Z,00000200,00000000,0001.09,0000.42,0000.45,-000.04,0000.15,0000.16,0000.26,-000.19,0000.03,19.0,25.0,12.7,08.8,0675.2,31.0
2021-07-11T23:47:00Z,00000200,00000000,0001.15,0000.17,0000.29,0000.28,0000.01,0000.24,0000.30,0000.00,-000.26,19.0,25.0,12.7,08.7,0675.2,31.0
2021-07-11T23:48:00Z,00000200,00000000,0000.97,0000.51,0000.34,0000.25,0000.17,-000.10,-000.14,-000.03,0000.05,19.0,25.0,12.6,08.7,0675.2,31.0
2021-07-11T23:49:00Z,00000200,00000000,0000.47,0000.23,0000.35,0000.34,0000.18,0000.09,-000.13,0000.07,0000.12,19.0,25.0,12.6,08.7,0675.2,31.0
2021-07-11T23:50:00Z,00000200,00000000,0001.30,0000.40,0000.59,0000.22,0000.33,0000.28,0000.49,0000.22,0000.17,19.0,25.0,12.6,08.7,0675.2,31.0
2021-07-11T23:51:00Z,00000200,00000000,0000.52,0000.24,0000.40,0000.20,0000.15,0000.16,-000.09,0000.19,-000.11,19.0,25.0,12.7,08.8,0675.2,31.0
2021-07-11T23:52:00Z,00000200,00000000,0001.23,0000.37,0000.25,0000.26,0000.33,-000.35,-000.06,-000.12,0000.22,19.0,25.0,12.7,08.8,0675.1,31.0
2021-07-11T23:53:00Z,00000200,00000000,0000.91,0000.34,0000.39,-000.30,0000.44,0000.02,0000.17,0000.13,0000.12,19.0,25.0,12.8,08.8,0675.2,31.0
2021-07-11T23:54:00Z,00000200,00000000,0000.60,0000.05,0000.18,-000.02,0000.30,-000.02,-000.13,0000.24,0000.08,19.0,25.0,12.6,08.7,0675.2,31.0
2021-07-11T23:55:00Z,00000200,00000000,0001.08,0000.30,0000.34,0000.50,0000.21,0000.06,0000.14,-000.11,-000.17,19.0,25.0,12.7,08.8,0675.2,31.0
2021-07-11T23:56:00Z,00000200,00000000,0001.77,0000.22,0000.51,-000.19,0000.26,0000.03,-000.20,0000.14,-000.03,19.0,25.0,12.6,08.7,0675.2,31.0
2021-07-11T23:57:00Z,00000200,40000000,,,,,,,0000.27,-000.24,0000.04,19.0,25.1,12.9,08.9,0675.3,31.0
2021-07-11T23:58:00Z,00000200,60000000,,,,,,,-000.28,0000.12,0000.13,18.7,25.1,12.6,08.5,0674.2,31.0
2021-07-11T23:59:00Z,00000200,20000000,,,,,,,-000.00,0000.03,-000.30,18.7,25.2,12.6,08.5,0674.1,31.0
